Simultaneous Nadir Overpasses (SNOs) Predictions

Prediction of SNOs between GOES-15 and NPP Satellite Orbit:

Table of predicted SNOs for the next 14.0 days since TLE Epoch: 6/8/2017
Index Date Time (GOES-15) GOES-15 Lat,Lon NPP Lat,Lon Distance(km) Time Diff (sec)
1 06/09/2017 10:14:27 0.00,-135.22 -0.69,-132.12 353.32 80
2 06/10/2017 22:33:44 0.02,-135.28 -0.44,-137.43 244.36 80
3 06/11/2017 22:17:39 0.01,-135.30 0.53,-132.89 274.65 80
4 06/13/2017 10:36:47 -0.03,-135.30 0.60,-138.17 326.45 80
5 06/14/2017 10:20:42 -0.02,-135.32 -0.37,-133.62 192.08 80
6 06/15/2017 22:39:59 0.04,-135.37 -0.76,-138.94 407.02 80
7 06/16/2017 22:23:54 0.03,-135.38 0.27,-134.41 111.34 80
8 06/18/2017 10:43:02 -0.05,-135.37 0.92,-139.68 490.56 80
9 06/19/2017 10:26:57 -0.04,-135.38 -0.11,-135.15 27.19 80
10 06/21/2017 22:27:29 0.05,-135.42 -0.05,-135.92 56.41 80




NCC Satellite Simultaneous Nadir Overpasses (SNOs) Prediction Service
